[[{"header":{"parameterUnit":"m.s-1","parameterCategory":1,"la1":30.2991,"la2":30.254,"lo1":-89.0895,"lo2":-89.0444,"dy":0.0017,"dx":0.0017,"nx":28,"ny":28,"refTime":"2024-08-08T03:00:00:Z","depth":0,"parameterNumber":2,"parameterNumberName":"U-component_of_WINDS"},"data":[0,0,0,0,0,0,0,0,0,0,0,0,0,0,0,0,0,0,0,0,0,0,0,0,0,0,0,0,0,0,0,0,0,0,0,0,0,0,0,0,0,0,0,0,0,0,0,0,0,0,0,0,0,0,0,0,0,0,5.9084,5.9084,0,5.9093,5.9093,5.9093,5.9047,5.9046,5.9044,5.9043,5.9052,5.9053,5.9054,0,0,0,0,0,0,0,0,0,0,0,0,0,5.9025,5.9026,5.9084,5.9084,5.9084,5.9093,5.9093,5.9093,5.9047,5.9046,5.9044,5.9042,5.9051,5.9053,5.9055,0,0,0,0,0,0,0,0,0,0,0,0,0,5.9044,5.9027,5.9083,5.9062,5.906,5.9093,5.9093,5.9093,5.9048,5.9046,5.9044,5.9042,5.905,5.9053,5.9055,5.9109,0,0,5.9062,5.9063,0,0,0,0,0,0,0,0,5.9043,5.9046,5.9065,5.9063,5.9061,5.9067,5.9076,5.9098,5.9048,5.9052,5.9043,5.9041,5.9058,5.906,5.9066,5.9109,5.9109,5.9062,5.9063,5.9064,5.9065,0,0,0,0,0,0,0,5.9042,5.9046,5.9087,5.9065,5.9063,5.9052,5.9052,5.908,5.9066,5.9052,5.9048,5.905,5.9057,5.9064,5.9066,5.9109,5.9062,5.9064,5.9065,5.9066,5.9198,5.92,0,0,0,0,0,0,5.9043,5.9045,5.9087,5.9088,5.9047,5.9054,5.9055,5.9067,5.9066,5.9064,5.9052,5.9048,5.9061,5.9063,5.9066,5.9129,5.9064,5.9066,5.9067,5.9196,5.9198,5.9201,0,0,0,0,0,0,5.9042,5.9048,5.9087,5.9065,5.9069,5.9057,5.9072,5.9068,5.9075,5.9066,5.9063,5.9062,5.9059,5.9063,5.9098,5.9128,5.9067,5.9069,5.9193,5.9197,5.92,5.9255,0,0,0,0,0,0,5.9041,5.9047,5.9068,5.9066,5.9071,5.9119,5.9073,5.907,5.9079,5.9074,5.9074,5.9072,5.9058,5.9095,5.9101,5.913,5.9071,5.919,5.9195,5.9199,5.925,5.926,5.9268,0,0,0,0,0,5.9039,5.9082,5.9069,5.9074,5.9096,5.9121,5.9124,5.9107,5.9082,5.9102,5.9097,5.9072,5.9125,5.91,5.9105,5.9136,5.9188,5.9193,5.9198,5.9246,5.9258,5.9267,0,0,0,0,0,0,5.9087,5.9082,5.9067,5.9111,5.9117,5.9113,5.9138,5.9119,5.9132,5.9127,5.9105,5.9105,5.9145,5.9144,5.9116,5.9188,5.9152,5.9158,5.9187,5.9198,5.9206,5.9205,5.9073,0,0,0,0,0,5.9103,5.9124,5.9118,5.9158,5.9162,5.915,5.916,5.9147,5.9152,5.9154,5.9151,5.9156,5.9174,5.9186,5.9202,5.9251,5.925,5.9274,5.9283,5.929,5.9295,5.9321,5.9332,5.9217,5.9217,5.9217,0,0,5.9135,5.9135,5.915,5.9168,5.9171,5.9193,5.9152,5.9177,5.9194,5.9157,5.9191,5.919,5.9194,5.9237,5.9256,5.9237,5.9328,5.9296,5.9302,5.9303,5.9328,5.9339,5.9348,5.922,5.922,5.9219,0,0,5.9206,5.9208,5.9242,5.9246,5.9252,5.9244,5.9252,5.9252,5.9249,5.9283,5.9257,5.9276,5.9307,5.9311,5.9318,5.9393,5.9371,5.9399,5.9443,5.9469,5.9478,5.9486,5.9512,5.9522,5.9404,5.9404,5.9404,0,5.9245,5.9278,5.9261,5.9289,5.9297,5.9267,5.9301,5.9306,5.9316,5.9323,5.9303,5.9341,5.9342,5.9386,5.9405,5.9411,5.9419,5.9397,5.9478,5.9486,5.9493,5.9518,5.9528,5.9407,5.9407,5.9407,5.9406,0,5.9327,5.935,5.9376,5.9388,5.94,5.9431,5.9418,5.9432,5.9419,5.9413,5.9448,5.9449,5.9464,5.9474,5.946,5.9516,5.9505,5.9482,5.9445,5.9507,5.953,5.954,5.9412,5.9411,5.941,5.9409,0,0,5.9425,5.9429,5.9439,5.9444,5.9449,5.9467,5.9496,5.9512,5.9525,5.9534,5.9557,5.9585,5.9565,5.9572,5.9559,5.9582,5.9641,5.9556,5.9556,5.9571,5.9702,5.9718,5.973,5.9627,5.9629,5.9631,5.9701,0,5.9494,5.9545,5.9531,5.9582,5.9603,5.9576,5.9602,5.9608,5.9604,5.9621,5.9617,5.9637,5.9608,5.9612,5.9634,5.9629,5.9667,5.9624,5.9649,5.965,5.9647,5.9742,5.9759,5.9826,5.971,5.9712,5.9713,0,5.9581,5.9594,5.9647,5.9649,5.9658,5.9681,5.9695,5.9713,5.9719,5.9715,5.9724,5.9707,5.9736,5.9701,5.9741,5.9712,5.9722,5.9721,5.9724,5.9724,5.9684,5.9744,5.9846,5.9856,5.9727,5.9726,5.9725,0,5.9647,5.9678,5.9714,5.972,5.9723,5.9741,5.9743,5.9747,5.9758,5.9771,5.9778,5.9793,5.9802,5.9814,5.9802,5.9777,5.9844,5.9807,5.984,5.9841,5.9854,5.9853,5.9958,5.9862,5.9862,5.9862,5.9862,0,5.9725,5.9758,5.9744,5.9766,5.9803,5.9787,5.9824,5.9823,5.9828,5.9849,5.9827,5.9847,5.983,5.9849,5.984,5.9874,5.9878,5.9875,5.9872,5.9876,5.9877,5.9881,5.9876,5.9865,5.9864,5.9864,5.9863,0,5.9804,5.9796,5.9833,5.9835,5.9836,5.9863,5.9864,5.9884,5.9879,5.9907,5.9912,5.9904,5.9926,5.9915,5.9937,5.9931,5.9975,5.9966,5.9973,5.997,6.0003,6.0,6.0115,6.0129,6.0024,6.0025,6.0026,0,5.9854,5.9879,5.9883,5.9896,5.9901,5.9922,5.9933,5.9919,5.9932,5.9942,5.9962,5.9981,5.9996,6.0031,6.0027,6.0044,6.0035,6.0074,6.0037,6.0041,6.0034,6.0033,6.0035,6.0081,6.0082,6.0083,6.0084,0,5.9942,5.9937,5.9955,5.9972,5.9987,5.9999,6.0009,6.0021,6.0008,6.0023,6.0045,6.0057,6.008,6.0099,6.0114,6.0116,6.0098,6.0096,6.0104,6.0108,6.0111,6.0109,5.9992,6.0093,6.0092,6.0091,6.0091,6.009,6.0008,6.0029,6.0036,6.0057,6.0063,6.0074,6.0093,6.0092,6.011,6.0128,6.0119,6.0144,6.0151,6.0169,6.0174,6.0194,6.0178,6.019,6.0193,6.0196,6.02,6.0109,6.0196,6.0196,6.0196,6.0196,6.0196,0,6.0095,6.0098,6.0118,6.0133,6.015,6.0132,6.0143,6.0158,6.0181,6.0189,6.0205,6.023,6.0249,6.0248,6.0266,6.0282,6.0274,6.0287,6.0285,6.0285,6.0214,6.0204,6.0293,6.0293,6.0293,6.0293,6.0293,6.0293,6.0142,6.0177,6.0173,6.0212,6.0215,6.0241,6.0249,6.0258,6.0265,6.0294,6.0311,6.031,6.0314,6.0332,6.0349,6.0348,6.0355,6.0371,6.0367,6.03,6.029,6.0281,6.0272,6.0373,6.0374,6.0437,6.0438,6.0438]},{"header":{"parameterUnit":"m.s-1","parameterCategory":1,"la1":30.2991,"la2":30.254,"lo1":-89.0895,"lo2":-89.0444,"dy":0.0017,"dx":0.0017,"nx":28,"ny":28,"refTime":"2024-08-08T03:00:00:Z","depth":0,"parameterNumber":3,"parameterNumberName":"V-component_of_WINDS"},"data":[0,0,0,0,0,0,0,0,0,0,0,0,0,0,0,0,0,0,0,0,0,0,0,0,0,0,0,0,0,0,0,0,0,0,0,0,0,0,0,0,0,0,0,0,0,0,0,0,0,0,0,0,0,0,0,0,0,0,-0.5329,-0.5328,0,-0.5198,-0.5196,-0.5195,-0.519,-0.5191,-0.5193,-0.5194,-0.5055,-0.505,-0.5045,0,0,0,0,0,0,0,0,0,0,0,0,0,-0.5572,-0.5567,-0.5329,-0.5328,-0.5326,-0.5198,-0.5196,-0.5195,-0.5189,-0.5191,-0.5193,-0.5195,-0.5056,-0.505,-0.5044,0,0,0,0,0,0,0,0,0,0,0,0,0,-0.5456,-0.5566,-0.533,-0.5308,-0.5305,-0.5199,-0.5196,-0.5194,-0.5189,-0.5191,-0.5194,-0.5196,-0.5058,-0.5051,-0.5043,-0.4948,0,0,-0.5019,-0.5016,0,0,0,0,0,0,0,0,-0.5463,-0.5447,-0.5313,-0.5309,-0.5306,-0.5213,-0.5231,-0.5111,-0.5188,-0.5233,-0.5194,-0.5197,-0.5105,-0.5094,-0.5064,-0.4941,-0.4935,-0.5019,-0.5014,-0.5011,-0.5009,0,0,0,0,0,0,0,-0.5471,-0.5453,-0.5277,-0.5311,-0.5306,-0.5304,-0.529,-0.5208,-0.5157,-0.5229,-0.5228,-0.5213,-0.5103,-0.5071,-0.506,-0.4933,-0.5019,-0.5012,-0.5007,-0.5004,-0.4728,-0.4726,0,0,0,0,0,0,-0.5483,-0.5459,-0.5281,-0.5273,-0.5392,-0.5298,-0.5282,-0.524,-0.5158,-0.5148,-0.5211,-0.5214,-0.5083,-0.5069,-0.5055,-0.494,-0.5011,-0.5003,-0.4999,-0.4731,-0.4728,-0.4725,0,0,0,0,0,0,-0.5489,-0.5468,-0.5287,-0.5366,-0.5343,-0.5291,-0.5244,-0.5236,-0.5204,-0.5145,-0.5135,-0.5188,-0.5085,-0.5066,-0.4976,-0.4935,-0.5,-0.4993,-0.4734,-0.473,-0.4726,-0.4708,0,0,0,0,0,0,-0.5496,-0.547,-0.5434,-0.5365,-0.5339,-0.521,-0.5241,-0.5232,-0.5191,-0.5193,-0.512,-0.511,-0.5085,-0.4987,-0.4968,-0.4926,-0.4987,-0.4737,-0.4732,-0.4728,-0.4712,-0.4704,-0.4697,0,0,0,0,0,-0.5504,-0.5432,-0.5432,-0.541,-0.5293,-0.5208,-0.5192,-0.5166,-0.5188,-0.5151,-0.5113,-0.5113,-0.4943,-0.4978,-0.4956,-0.4911,-0.474,-0.4734,-0.4728,-0.4715,-0.4706,-0.4697,0,0,0,0,0,0,-0.5494,-0.5423,-0.5422,-0.5325,-0.5273,-0.5207,-0.516,-0.5156,-0.5095,-0.5099,-0.5067,-0.5051,-0.4961,-0.4927,-0.4967,-0.4815,-0.4844,-0.4833,-0.4842,-0.4832,-0.4824,-0.4835,-0.498,0,0,0,0,0,-0.5481,-0.542,-0.5359,-0.528,-0.5254,-0.5212,-0.5173,-0.5158,-0.5102,-0.5079,-0.5034,-0.4979,-0.4913,-0.487,-0.4806,-0.4707,-0.4692,-0.4665,-0.4658,-0.4652,-0.4643,-0.459,-0.4578,-0.4705,-0.4705,-0.4705,0,0,-0.5453,-0.5406,-0.5369,-0.5277,-0.5235,-0.5171,-0.5193,-0.5123,-0.5076,-0.5068,-0.4981,-0.4946,-0.4882,-0.4787,-0.4743,-0.4755,-0.4605,-0.4644,-0.464,-0.4634,-0.4583,-0.4571,-0.456,-0.4701,-0.4702,-0.4702,0,0,-0.5369,-0.5327,-0.5258,-0.5216,-0.5152,-0.5125,-0.5108,-0.5043,-0.502,-0.4933,-0.4926,-0.4868,-0.4755,-0.471,-0.4672,-0.4574,-0.4572,-0.4554,-0.4515,-0.4463,-0.4453,-0.4444,-0.4411,-0.4399,-0.4545,-0.4545,-0.4545,0,-0.5342,-0.5247,-0.5222,-0.5154,-0.5114,-0.5106,-0.5036,-0.4995,-0.4913,-0.4886,-0.4901,-0.4761,-0.4717,-0.4613,-0.4589,-0.4558,-0.4539,-0.4562,-0.4457,-0.4448,-0.4439,-0.4407,-0.4394,-0.4543,-0.4544,-0.4544,-0.4544,0,-0.5217,-0.5151,-0.5102,-0.5027,-0.4981,-0.4912,-0.4876,-0.4833,-0.4822,-0.4792,-0.4704,-0.4651,-0.4577,-0.4551,-0.4538,-0.4445,-0.4455,-0.4464,-0.4492,-0.4426,-0.4395,-0.4382,-0.4541,-0.4542,-0.4542,-0.4543,0,0,-0.5123,-0.5036,-0.5019,-0.4985,-0.4915,-0.4863,-0.4794,-0.4724,-0.4688,-0.4632,-0.4573,-0.4479,-0.4488,-0.4445,-0.4427,-0.4382,-0.431,-0.4396,-0.4394,-0.4384,-0.4206,-0.4201,-0.4187,-0.4307,-0.4305,-0.4303,-0.4212,0,-0.5033,-0.4912,-0.4889,-0.4783,-0.4722,-0.4715,-0.4654,-0.4604,-0.4575,-0.4519,-0.4486,-0.442,-0.4436,-0.441,-0.4365,-0.4328,-0.4274,-0.4334,-0.4253,-0.425,-0.4271,-0.4171,-0.4165,-0.4081,-0.42,-0.4198,-0.4196,0,-0.4913,-0.4857,-0.4746,-0.4686,-0.466,-0.4606,-0.4541,-0.4487,-0.4431,-0.4413,-0.4366,-0.4354,-0.4281,-0.4312,-0.4212,-0.4254,-0.4219,-0.4196,-0.4192,-0.4184,-0.422,-0.4162,-0.4054,-0.4042,-0.4176,-0.4178,-0.4179,0,-0.4858,-0.4754,-0.4675,-0.4646,-0.4574,-0.4537,-0.4505,-0.4451,-0.4411,-0.4353,-0.4327,-0.4261,-0.4225,-0.4174,-0.4144,-0.4169,-0.4047,-0.4075,-0.403,-0.4031,-0.4005,-0.4008,-0.3892,-0.398,-0.398,-0.3981,-0.3981,0,-0.4761,-0.4694,-0.465,-0.4601,-0.4526,-0.4499,-0.4425,-0.4393,-0.4345,-0.429,-0.4278,-0.4226,-0.4189,-0.4131,-0.4107,-0.4029,-0.4012,-0.3996,-0.399,-0.3998,-0.4,-0.3975,-0.3981,-0.3977,-0.3978,-0.3979,-0.3979,0,-0.4688,-0.4656,-0.4569,-0.4509,-0.4492,-0.4439,-0.4387,-0.4339,-0.4311,-0.4241,-0.4223,-0.4177,-0.4109,-0.4074,-0.3989,-0.3973,-0.3885,-0.3882,-0.3905,-0.3903,-0.3861,-0.3867,-0.3727,-0.3708,-0.3808,-0.3807,-0.3806,0,-0.463,-0.4578,-0.4513,-0.4476,-0.4444,-0.4384,-0.4344,-0.4315,-0.4274,-0.4207,-0.4168,-0.41,-0.4044,-0.3936,-0.3894,-0.3829,-0.3826,-0.3781,-0.3816,-0.3826,-0.3827,-0.3832,-0.3827,-0.3776,-0.3775,-0.3774,-0.3773,0,-0.453,-0.4517,-0.4461,-0.4399,-0.4352,-0.4302,-0.4252,-0.4222,-0.4185,-0.4139,-0.4071,-0.4028,-0.3942,-0.3875,-0.3808,-0.3773,-0.3767,-0.3763,-0.375,-0.3757,-0.3774,-0.3766,-0.389,-0.3766,-0.3767,-0.3768,-0.3768,-0.3768,-0.4463,-0.4418,-0.4366,-0.4304,-0.4264,-0.4218,-0.4171,-0.4138,-0.4081,-0.401,-0.3996,-0.3924,-0.387,-0.3779,-0.3743,-0.3686,-0.3695,-0.3675,-0.367,-0.3666,-0.3665,-0.3782,-0.3673,-0.3673,-0.3673,-0.3673,-0.3673,0,-0.4364,-0.4331,-0.4274,-0.4207,-0.4158,-0.4158,-0.4103,-0.4062,-0.4,-0.395,-0.3897,-0.3819,-0.3754,-0.3709,-0.3643,-0.3606,-0.3602,-0.359,-0.3593,-0.3586,-0.366,-0.3679,-0.3595,-0.3595,-0.3595,-0.3595,-0.3595,-0.3595,-0.4308,-0.4232,-0.4213,-0.4118,-0.4084,-0.4015,-0.3984,-0.3942,-0.3903,-0.3817,-0.3764,-0.3736,-0.3688,-0.3618,-0.3559,-0.3547,-0.3524,-0.3513,-0.3501,-0.3572,-0.358,-0.3588,-0.3606,-0.3508,-0.3508,-0.3432,-0.3431,-0.3431]}]]